Starlink 4578

operational
NORAD ID: 53965 Int'l Des: 2022-125 Owner: SPXS Country: US Constellation: starlink
LEOCIRCULAR

Starlink 4578について

説明を読み込み中...

リアルタイム位置

3D地球を読み込み中...

次回通過

高度履歴

Altitude vs Time

uPlot chart will show altitude changes over time

軌道要素

1 53965U 22125B 25348.92422235 -.00008441 00000-0 -51243-3 0 9998
2 53965 53.2156 244.7723 0001721 78.1313 281.9872 15.08871846176521
Epoch: Dec 14, 2025 • Age: 23 hours

現在のステータス

高度 544.2 km
速度 7.60 km/s
衛星直下点 48.93°N, 36.66°W
打ち上げ日 Oct 5, 2022
運用期間 3.1 years
タイプ internet

技術仕様

分類 Payload
質量 305.00 kg
乾燥質量 290.00 kg
総質量 305.00 kg
長さ 0.20 m
直径 2.80 m
スパン 9.00 m
形状 Box + pan
製造者 SPXS
バスタイプ Starlink
フェーズステータス In Orbit
所有者/国 SPXS/US

大規模コンステレーション

Loading constellations...